This is the latest recevied weather packets stored in our database for station/object KB9GXK. If no packets are shown the sender has not sent any weather packets the latest 1 day(s).
| Time | Temp. | Humidity | Pressure | Rain* | Wind** | Luminosity | Snow |
|---|---|---|---|---|---|---|---|
| 1777988572 | 10.56° C | 47% | 1009.5 hPa | 0 mm | 1.34 m/s, 264° | 233 W/m² | - |
| 1777988268 | 10° C | 46% | 1009.2 hPa | 0 mm | 0.45 m/s, 302° | 171 W/m² | - |
| 1777987965 | 10° C | 44% | 1009.5 hPa | 0 mm | 0.45 m/s, 295° | 163 W/m² | - |
| 1777987660 | 9.44° C | 45% | 1009.6 hPa | 0 mm | 0.45 m/s, 354° | 142 W/m² | - |
| 1777987358 | 9.44° C | 44% | 1009.5 hPa | 0 mm | 0.89 m/s, 305° | 119 W/m² | - |
| 1777987055 | 10° C | 44% | 1009.5 hPa | 0 mm | 0.89 m/s, 317° | 108 W/m² | - |
| 1777986752 | 10° C | 45% | 1009.2 hPa | 0 mm | 0.45 m/s, 318° | 104 W/m² | - |
| 1777986450 | 9.44° C | 44% | 1009.3 hPa | 0 mm | 0.89 m/s, 318° | 123 W/m² | - |
| 1777986149 | 9.44° C | 45% | 1009 hPa | 0 mm | 0.45 m/s, 288° | 125 W/m² | - |
| 1777985845 | 9.44° C | 45% | 1009.2 hPa | 0 mm | 0.89 m/s, 330° | 130 W/m² | - |
| 1777985542 | 9.44° C | 45% | 1008.9 hPa | 0 mm | 1.34 m/s, 286° | 119 W/m² | - |
| 1777985239 | 9.44° C | 46% | 1009 hPa | 0 mm | 0 m/s | 107 W/m² | - |
| 1777984936 | 9.44° C | 47% | 1009 hPa | 0 mm | 0.45 m/s, 294° | 115 W/m² | - |
| 1777984631 | 8.89° C | 47% | 1008.9 hPa | 0 mm | 0 m/s | 119 W/m² | - |
| 1777984329 | 8.89° C | 47% | 1009.1 hPa | 0 mm | 0 m/s | 92 W/m² | - |
| 1777984025 | 8.89° C | 47% | 1009.2 hPa | 0 mm | 0 m/s | 75 W/m² | - |
| 1777983722 | 8.89° C | 47% | 1009.5 hPa | 0 mm | 0.45 m/s, 322° | 69 W/m² | - |
| 1777983419 | 8.89° C | 50% | 1009.2 hPa | 0 mm | 0 m/s | 63 W/m² | - |
| 1777983115 | 8.89° C | 50% | 1009.3 hPa | 0 mm | 0 m/s | 52 W/m² | - |
| 1777982811 | 8.89° C | 50% | 1009.5 hPa | 0 mm | 0.45 m/s, 279° | 48 W/m² | - |
| 1777982508 | 8.89° C | 50% | 1009.2 hPa | 0 mm | 0 m/s | 35 W/m² | - |
| 1777982201 | 8.89° C | 48% | 1008.8 hPa | 0 mm | 0.45 m/s, 269° | 40 W/m² | - |
| 1777981899 | 8.89° C | 48% | 1008.7 hPa | 0 mm | 0.45 m/s, 302° | 34 W/m² | - |
| 1777981596 | 8.89° C | 48% | 1008 hPa | 0 mm | 0.45 m/s, 297° | 28 W/m² | - |
| 1777981292 | 8.89° C | 47% | 1008.6 hPa | 0 mm | 0.45 m/s, 265° | 18 W/m² | - |
* Rain latest hour (hover to see other rain measurements)
** Current wind speed in m/s (hover to see current wind gust speed)